User: anonymous   Login
Location: Newark
(39.9500°N, 8.6833°E)
Time: 12:53:08
(UTC+00:00)
Language:

NOAA 18 - Orbit

View from above orbital plane
View from above orbital plane
View from above satellite
View from above satellite

Ground track
Ground track

The orbit data is extracted from the following two-line orbital elements,

1 28654U 05018A   20048.88434444 +.00000050 +00000-0 +52043-4 0  9995
2 28654 099.0623 104.0907 0013986 207.2225 152.8214 14.12489289759893
Epoch (UTC): 17 February 2020 21:13:27
Eccentricity: 0.0013986
inclination: 99.0623°
perigee height: 841 km
apogee height: 861 km
right ascension of ascending node: 104.0907°
argument of perigee: 207.2225°
revolutions per day: 14.12489289
mean anomaly at epoch: 152.8214°
orbit number at epoch: 75989

The dashed part of the orbit path shows where the satellite is in the earth's shadow,  

DLR